Home > Weather > Freehold > Past weeks

Flag for U.S.A. Weather for the Past 2 Weeks in Freehold, New Jersey, U.S.A.

Now
16 °F

Clear.


Feels Like: 7 °F
Forecast: 11 / 26 °F
Wind: 6 mph from Northwest

Location: Belmar-Farmdale

Current Time: Feb 12, 2016 at 5:26:01 AM

Latest Report: Feb 12, 2016 at 4:55 AM


Visibility: 10 mi

Pressure: N/A

Humidity: 41%

Dew point: -4 °F

Location of FreeholdLocation

Historic Weather in Freehold — Graph

°F

Freehold Temperature Yesterday

Maximum temperature yesterday: 28 °F (at 12:15 AM)
Minimum temperature yesterday: 19 °F (at 10:55 PM)
Average temperature yesterday: 24 °F

High & Low Weather Summary for the Past Weeks

 TemperatureHumidityPressure
High59 °F (Jan 31, 2:35 PM)82% (Feb 3, 4:35 PM)30.44 "Hg (Feb 3, 4:35 PM)
Low18 °F (Feb 12, 2:15 AM)31% (Feb 11, 1:55 PM)29.48 "Hg (Jan 29, 7:15 AM)
Average37 °F59%29.95 "Hg
* Reported Jan 28 4:15 AM — Feb 12 4:15 AM, Freehold, Weather by CustomWeather, © 2016

Note: Actual official high and low records may vary slightly from our data, if they occured in-between our weather recording intervals... More about our weather records

Advertising

Freehold Weather History for the Previous 24 Hours

 ConditionsComfort  
Time TempWeatherWind HumidityBarometerVisibility
4:15 AM
Fri, Feb 12
18 °FClear.12 mph38%30.25 "Hg10 mi
3:55 AM18 °FClear.10 mph38%30.25 "Hg10 mi
3:35 AM18 °FClear.9 mph38%30.25 "Hg10 mi
3:15 AM18 °FClear.14 mph41%30.25 "Hg10 mi
2:55 AM18 °FClear.14 mph41%30.24 "Hg10 mi
2:35 AM18 °FClear.10 mph41%30.24 "Hg10 mi
2:15 AM18 °FClear.10 mph41%30.23 "Hg10 mi
1:55 AM19 °FClear.12 mph38%30.24 "Hg10 mi
1:35 AM19 °FClear.12 mph38%30.23 "Hg10 mi
1:15 AM19 °FClear.15 mph42%30.22 "Hg10 mi
12:55 AM19 °FClear.13 mph42%30.23 "Hg10 mi
12:35 AM19 °FClear.12 mph42%30.22 "Hg10 mi
11:55 PM
Thu, Feb 11
19 °FClear.13 mph42%30.20 "Hg10 mi
11:35 PM19 °FClear.12 mph45%30.20 "Hg10 mi
11:15 PM19 °FClear.13 mph45%30.20 "Hg10 mi
10:55 PM19 °FClear.10 mph45%30.19 "Hg10 mi
10:35 PM21 °FClear.13 mph42%30.19 "Hg10 mi
9:55 PM21 °FClear.14 mph38%30.17 "Hg10 mi
9:35 PM21 °FClear.14 mph42%30.16 "Hg10 mi
8:55 PM21 °FClear.15 mph42%30.15 "Hg10 mi
8:35 PM21 °FClear.15 mph42%30.14 "Hg10 mi
8:15 PM21 °FClear.16 mph42%30.13 "Hg10 mi
7:55 PM21 °FClear.12 mph42%30.12 "Hg10 mi
7:35 PM21 °FClear.15 mph42%30.11 "Hg10 mi
7:15 PM21 °FClear.17 mph42%30.10 "Hg10 mi
6:55 PM21 °FPassing clouds.14 mph42%30.09 "Hg10 mi
6:35 PM23 °FPassing clouds.13 mph39%30.08 "Hg10 mi
5:55 PM23 °FPassing clouds.13 mph39%30.05 "Hg10 mi
4:55 PM25 °FMostly cloudy.20 mph33%30.01 "Hg10 mi
4:15 PM25 °FMostly cloudy.24 mph33%29.99 "Hg10 mi
3:55 PM25 °FOvercast.24 mph33%29.98 "Hg10 mi
3:35 PM25 °FMostly cloudy.23 mph33%29.97 "Hg10 mi
3:15 PM25 °FMostly cloudy.17 mph33%29.96 "Hg10 mi
2:55 PM25 °FOvercast.22 mph33%29.95 "Hg10 mi
2:35 PM25 °FOvercast.17 mph33%29.94 "Hg10 mi
2:15 PM27 °FOvercast.24 mph31%29.94 "Hg10 mi
1:55 PM27 °FOvercast.21 mph31%29.93 "Hg10 mi
1:35 PM27 °FPartly sunny.24 mph33%29.93 "Hg10 mi
1:15 PM27 °FOvercast.16 mph33%29.93 "Hg10 mi
12:55 PM25 °FBroken clouds.16 mph36%29.93 "Hg10 mi
12:35 PM25 °FPartly sunny.25 mph36%29.94 "Hg10 mi
12:15 PM27 °FScattered clouds.24 mph39%29.94 "Hg10 mi
11:55 AM25 °FBroken clouds.17 mph46%29.94 "Hg10 mi
11:35 AM21 °FCloudy.16 mph49%29.94 "Hg1 mi
11:15 AM25 °FBroken clouds.21 mph39%29.94 "Hg10 mi
10:55 AM25 °FMore clouds than sun.21 mph36%29.95 "Hg10 mi
10:35 AM25 °FMostly cloudy.18 mph42%29.95 "Hg10 mi
10:15 AM25 °FBroken clouds.22 mph39%29.95 "Hg10 mi
9:55 AM25 °FPassing clouds.17 mph39%29.94 "Hg10 mi
9:35 AM25 °FPassing clouds.21 mph36%29.94 "Hg10 mi
9:15 AM25 °FScattered clouds.18 mph36%29.94 "Hg10 mi
8:55 AM25 °FPassing clouds.15 mph36%29.94 "Hg10 mi
8:35 AM25 °FPassing clouds.16 mph36%29.93 "Hg10 mi
8:15 AM23 °FSunny.15 mph42%29.92 "Hg10 mi
7:55 AM23 °FSunny.14 mph42%29.91 "Hg10 mi
7:35 AM23 °FSunny.12 mph39%29.91 "Hg10 mi
7:15 AM21 °FSunny.12 mph42%29.90 "Hg10 mi
6:55 AM21 °FSunny.9 mph42%29.89 "Hg10 mi
6:35 AM23 °FClear.10 mph36%29.88 "Hg10 mi
6:15 AM23 °FClear.14 mph36%29.87 "Hg10 mi
5:55 AM23 °FPassing clouds.22 mph39%29.86 "Hg10 mi
5:35 AM25 °FOvercast.18 mph36%29.85 "Hg10 mi
5:15 AM25 °FOvercast.18 mph36%29.84 "Hg10 mi
Weather by CustomWeather, © 2016

See weather overviewHow to use our weather pages